UAE339 UZTT-OMDB

Flight info

Callsign UAE339
Flight time N/A
Altitude 38000
Route KUFIM2A KUFIM L170 MOSOM A114 OLRAM L148 AMDAR/N0510F290 A454 KHOLM/N0503F280 M375 BOTAN/N0504F320 M375 PAROD/N0510F310 V390 SERKA/N0487F370 B466 KALAT/N0484F380 G325 PG J215 TU J185 BIVIN R462 VUSET DCT ITURA DCT TAPRA M762 VAXAS/N0473F240 M564 NALNU Q568 IMPED
Aircraft B77W/H-SDE1E2E3FGHIJ2J3J4J5M1RWXY/LB1D1

Departure

Time 2026-04-25 18:46
Airport Tashkent International Airport (UZTT)

Arrival

Time N/A
Airport Dubai International Airport (OMDB)
Time Latitude Longitude Altitude Speed Heading
2026-04-25 18:07 41.26209 69.27314 1427 ft 0 kts 81°
2026-04-25 18:14 41.26209 69.27313 1427 ft 0 kts 81°
2026-04-25 18:35 41.26208 69.27308 1427 ft 2 kts 80°
2026-04-25 18:35 41.26205 69.27289 1427 ft 2 kts 70°
2026-04-25 18:35 41.26199 69.27271 1427 ft 2 kts 62°
2026-04-25 18:35 41.26192 69.27254 1427 ft 2 kts 55°
2026-04-25 18:36 41.26183 69.27238 1427 ft 2 kts 47°
2026-04-25 18:36 41.26172 69.27224 1427 ft 2 kts 40°
2026-04-25 18:36 41.26160 69.27212 1427 ft 2 kts 34°
2026-04-25 18:36 41.26148 69.27200 1427 ft 2 kts 44°
2026-04-25 18:37 41.26141 69.27185 1427 ft 2 kts 73°
2026-04-25 18:37 41.26139 69.27166 1427 ft 2 kts 97°
2026-04-25 18:37 41.26143 69.27148 1427 ft 2 kts 120°
2026-04-25 18:37 41.26152 69.27133 1427 ft 2 kts 141°
2026-04-25 18:38 41.26158 69.27127 1427 ft 0 kts 142°
2026-04-25 18:41 41.26144 69.27143 1427 ft 5 kts 138°
2026-04-25 18:41 41.26118 69.27174 1427 ft 5 kts 137°
2026-04-25 18:42 41.26093 69.27203 1427 ft 6 kts 147°
2026-04-25 18:42 41.26061 69.27207 1427 ft 5 kts 200°
2026-04-25 18:42 41.26008 69.27113 1427 ft 13 kts 243°
2026-04-25 18:42 41.25980 69.27035 1427 ft 7 kts 245°
2026-04-25 18:43 41.25957 69.26968 1427 ft 10 kts 245°
2026-04-25 18:43 41.25909 69.26833 1427 ft 14 kts 239°
2026-04-25 18:43 41.25865 69.26721 1427 ft 13 kts 245°
2026-04-25 18:43 41.25828 69.26616 1427 ft 12 kts 246°
2026-04-25 18:44 41.25798 69.26527 1427 ft 5 kts 245°
2026-04-25 18:44 41.25797 69.26522 1427 ft 0 kts 245°
2026-04-25 18:44 41.25782 69.26479 1427 ft 14 kts 245°
2026-04-25 18:44 41.25708 69.26405 1427 ft 13 kts 178°
2026-04-25 18:45 41.25673 69.26444 1427 ft 5 kts 93°
2026-04-25 18:45 41.25673 69.26524 1427 ft 14 kts 85°
2026-04-25 18:45 41.25703 69.26813 1427 ft 68 kts 81°
2026-04-25 18:45 41.25819 69.27863 1429 ft 156 kts 81°
2026-04-25 18:46 41.25985 69.29434 2079 ft 183 kts 84°
2026-04-25 18:46 41.26159 69.31076 3231 ft 189 kts 82°
2026-04-25 18:46 41.26344 69.32744 4366 ft 195 kts 82°
2026-04-25 18:46 41.26546 69.34566 5140 ft 203 kts 82°
2026-04-25 18:47 41.26751 69.36483 5664 ft 219 kts 82°
2026-04-25 18:47 41.26963 69.38496 6515 ft 221 kts 82°
2026-04-25 18:47 41.27194 69.40486 7338 ft 223 kts 82°
2026-04-25 18:47 41.27428 69.42640 7782 ft 244 kts 82°
2026-04-25 18:48 41.27663 69.44802 8666 ft 244 kts 81°
2026-04-25 18:48 41.27913 69.47103 9163 ft 262 kts 82°
2026-04-25 18:48 41.28146 69.49576 9882 ft 270 kts 90°
2026-04-25 18:48 41.27792 69.51939 10776 ft 267 kts 116°
2026-04-25 18:49 41.27132 69.53314 11234 ft 270 kts 135°